Weather History for Quillayute, WA

Change the Weather History Date:

Friday, December 7, 2012

  Actual Average Record
Temperature  
Mean Temperature 42 °F 41 °F  
Max Temperature 47 °F 46 °F 59 °F (2014)
Min Temperature 37 °F 35 °F 13 °F (1972)
Degree Days  
Heating Degree Days 23 24  
Month to date heating degree days 168  
Since 1 July heating degree days 1882  
Cooling Degree Days 0 0  
Month to date cooling degree days 0  
Year to date cooling degree days 19  
Moisture  
Dew Point 39 °F    
Average Humidity 87    
Maximum Humidity 100    
Minimum Humidity 58    
Precipitation  
Precipitation 0.35 in 0.45 in 2.71 in (1984)
Month to date precipitation 3.23  
Year to date precipitation 89.78  
Sea Level Pressure  
Sea Level Pressure 30.06 in    
Wind  
Wind Speed 8 mph (West)    
Max Wind Speed 22 mph    
Max Gust Speed 28 mph    
Visibility 4 miles    
Events Rain    
T = Trace of Precipitation, MM = Missing Value Source: NWS Daily Summary

Daily Weather History Graph

Daily Weather History Graph

Search for Another Location

Airport:

Trip Planner

Search our weather history database for the weather conditions in past years. The results will help you decide how hot, cold, wet, or windy it might be!

Date:

Astronomy

Dec. 07, 2012 Rise Set
Actual Time 7:54 AM PST 4:25 PM PST
Civil Twilight 7:18 AM PST 5:01 PM PST
Nautical Twilight 6:39 AM PST 5:40 PM PST
Astronomical Twilight 6:01 AM PST 6:18 PM PST
Moon 12:55 AM PST (12/7) 12:47 PM PST (12/7)
Length of Visible Light 9h 43m
Length of Day
8h 31m
Last Quarter, 37% of the Moon is Illuminated
Dec 7
Last Quarter
Dec 13
New
Dec 19
First Quarter
Dec 28
Full
Jan 4
Last Quarter

Hourly Weather History & Observations

Time (PST) Temp. Windchill Dew Point Humidity Pressure Visibility Wind Dir Wind Speed Gust Speed Precip Events Conditions
12:01 AM 44.6 °F 42.2 °F 42.8 °F 93% 30.05 in 3.0 mi Variable 4.6 mph - 0.01 in Rain Light Rain
12:17 AM 44.6 °F 37.8 °F 42.8 °F 93% 30.06 in 1.8 mi WSW 15.0 mph 26.5 mph 0.03 in Rain Rain
12:24 AM 44.6 °F 38.4 °F 42.8 °F 93% 30.05 in 3.0 mi WSW 12.7 mph 20.7 mph 0.04 in Rain Light Rain
12:53 AM 45.0 °F 40.6 °F 42.1 °F 90% 30.06 in 6.0 mi WSW 8.1 mph - 0.04 in   Overcast
1:53 AM 46.0 °F 41.0 °F 42.1 °F 86% 30.04 in 5.0 mi SW 10.4 mph - N/A   Overcast
2:35 AM 46.4 °F 40.7 °F 42.8 °F 87% 30.03 in 5.0 mi WSW 12.7 mph - N/A   Haze
2:53 AM 46.9 °F - 43.0 °F 86% 30.03 in 6.0 mi WSW 9.2 mph - N/A   Overcast
3:17 AM 46.4 °F 39.2 °F 42.8 °F 87% 30.03 in 1.8 mi West 18.4 mph 24.2 mph 0.01 in Rain Rain
3:28 AM 44.6 °F 40.7 °F 42.8 °F 93% 30.02 in 3.0 mi WSW 6.9 mph 21.9 mph 0.07 in Rain Light Rain
3:53 AM 45.0 °F 40.1 °F 42.1 °F 90% 30.01 in 6.0 mi WSW 9.2 mph - 0.07 in   Overcast
4:34 AM 46.4 °F 40.7 °F 42.8 °F 87% 30.00 in 2.5 mi West 12.7 mph - 0.00 in Rain Rain
4:42 AM 44.6 °F 37.2 °F 42.8 °F 93% 30.01 in 1.8 mi West 17.3 mph 25.3 mph 0.04 in Rain Light Rain
4:50 AM 44.6 °F 38.4 °F 42.8 °F 93% 30.01 in 3.0 mi West 12.7 mph 27.6 mph 0.05 in Rain Light Rain
4:51 AM 45.0 °F 38.5 °F 43.0 °F 93% 30.01 in 3.0 mi West 13.8 mph 27.6 mph 0.05 in Rain Light Rain
4:58 AM 44.6 °F 38.8 °F 42.8 °F 93% 30.00 in 3.0 mi WSW 11.5 mph - 0.01 in Rain Light Rain
5:35 AM 44.6 °F 42.2 °F 42.8 °F 93% 29.99 in 5.0 mi SSW 4.6 mph - 0.02 in Rain Light Rain
5:53 AM 44.1 °F 41.5 °F 43.0 °F 96% 29.99 in 5.0 mi West 4.6 mph - 0.02 in   Overcast
6:01 AM 44.6 °F 41.4 °F 42.8 °F 93% 29.99 in 6.0 mi West 5.8 mph - N/A   Overcast
6:29 AM 44.6 °F 38.8 °F 42.8 °F 93% 29.99 in 2.5 mi WSW 11.5 mph - 0.00 in Rain Rain
6:39 AM 44.6 °F 39.2 °F 42.8 °F 93% 29.99 in 6.0 mi West 10.4 mph - 0.01 in Rain Light Rain
6:53 AM 44.1 °F 40.8 °F 41.0 °F 89% 30.00 in 6.0 mi West 5.8 mph - 0.01 in   Mostly Cloudy
7:06 AM 44.6 °F - 41.0 °F 87% 30.00 in 6.0 mi Calm Calm - N/A   Mostly Cloudy
7:32 AM 44.6 °F 40.2 °F 39.2 °F 81% 29.99 in 6.0 mi West 8.1 mph - 0.00 in   Haze
7:53 AM 44.1 °F 38.1 °F 39.9 °F 85% 30.00 in 6.0 mi WNW 11.5 mph 17.3 mph 0.00 in Rain Light Rain
8:53 AM 44.1 °F 38.6 °F 39.0 °F 82% 30.01 in 3.0 mi West 10.4 mph - 0.01 in Rain Light Rain
9:00 AM 42.8 °F 36.6 °F 39.2 °F 87% 30.01 in 1.8 mi NW 11.5 mph 18.4 mph 0.00 in Rain Rain
9:08 AM 42.8 °F 36.6 °F 39.2 °F 87% 30.01 in 1.5 mi NW 11.5 mph 17.3 mph 0.02 in Rain Light Rain
9:13 AM 42.8 °F 40.1 °F 39.2 °F 87% 30.01 in 3.0 mi West 4.6 mph - 0.02 in Rain Light Rain
9:20 AM 42.8 °F 38.0 °F 39.2 °F 87% 30.01 in 5.0 mi West 8.1 mph - 0.02 in   Overcast
9:53 AM 43.0 °F 38.2 °F 37.9 °F 82% 30.02 in 5.0 mi West 8.1 mph - 0.02 in Rain Light Rain
10:53 AM 44.1 °F 39.5 °F 37.0 °F 76% 30.05 in 5.0 mi NW 8.1 mph 17.3 mph 0.00 in   Haze
11:53 AM 43.0 °F 36.4 °F 37.0 °F 80% 30.06 in 4.0 mi WNW 12.7 mph 19.6 mph 0.01 in Rain Light Rain
12:53 PM 46.0 °F 40.2 °F 37.0 °F 71% 30.06 in 5.0 mi WNW 12.7 mph 18.4 mph 0.00 in   Haze
1:53 PM 45.0 °F 39.3 °F 34.0 °F 65% 30.08 in 5.0 mi WNW 11.5 mph - N/A   Haze
2:53 PM 44.1 °F 40.8 °F 33.1 °F 65% 30.10 in 5.0 mi NW 5.8 mph - N/A   Haze
3:53 PM 43.0 °F 38.8 °F 33.1 °F 68% 30.10 in 5.0 mi NW 6.9 mph - N/A   Haze
4:53 PM 43.0 °F 38.8 °F 33.1 °F 68% 30.12 in 7.0 mi NW 6.9 mph - N/A   Mostly Cloudy
5:53 PM 39.9 °F - 37.0 °F 89% 30.13 in 7.0 mi Calm Calm - 0.01 in   Mostly Cloudy
6:51 PM 39.2 °F 33.0 °F 37.4 °F 93% 30.15 in 2.5 mi West 9.2 mph - 0.01 in Rain Light Rain
6:53 PM 39.0 °F 32.3 °F 37.0 °F 93% 30.15 in 2.5 mi WNW 10.4 mph 16.1 mph 0.01 in Rain Light Rain
7:12 PM 39.2 °F 35.0 °F 35.6 °F 87% 30.14 in 4.0 mi WSW 5.8 mph - N/A Rain Light Rain
7:53 PM 37.0 °F - 36.0 °F 96% 30.17 in 6.0 mi Calm Calm - 0.04 in   Mostly Cloudy
7:59 PM 37.4 °F 32.8 °F 37.4 °F 100% 30.16 in 2.5 mi Variable 5.8 mph - 0.01 in Rain Rain
8:16 PM 39.2 °F 37.0 °F 37.4 °F 93% 30.16 in 3.0 mi WNW 3.5 mph - N/A Rain Light Rain
8:33 PM 37.4 °F - 37.4 °F 100% 30.15 in 7.0 mi Calm Calm - 0.03 in   Overcast
8:53 PM 37.9 °F 35.5 °F 37.0 °F 97% 30.16 in 6.0 mi SSE 3.5 mph - 0.03 in   Mostly Cloudy
9:53 PM 37.9 °F 35.5 °F 36.0 °F 93% 30.17 in 4.0 mi NW 3.5 mph - 0.02 in Rain Light Rain
10:18 PM 39.2 °F 35.9 °F 35.6 °F 87% 30.16 in 6.0 mi Variable 4.6 mph - 0.00 in Rain Light Rain
10:53 PM 37.0 °F 34.5 °F 36.0 °F 96% 30.17 in 7.0 mi ESE 3.5 mph - 0.00 in   Partly Cloudy
11:53 PM 37.9 °F 35.5 °F 36.0 °F 93% 30.18 in 6.0 mi East 3.5 mph - 0.01 in   Overcast